Regional Weather Roundup
Issued by NWS

Home | Current Version | Previous Version | Text Only | Print | Product List | Glossary On
Versions: 1 2 3 4 5 6 7 8 9 10 11 12 13 14 15 16 17 18 19 20 21 22 23 24 25 26 27 28 29 30 31 32 33 34 35 36 37 38 39 40 41 42 43 44 45 46 47 48 49 50
000
ASUS43 KMPX 182210
RWRMN
WEATHER ROUNDUP FOR MINNESOTA
NATIONAL WEATHER SERVICE TWIN CITIES/CHANHASSEN MN
500 PM CDT FRI APR 18 2014


NOTE: "FAIR" INDICATES FEW OR NO CLOUDS BELOW 12,000 FEET WITH NO
SIGNIFICANT WEATHER AND/OR OBSTRUCTIONS TO VISIBILITY. N/A MEANS
CURRENT SKY AND/OR WEATHER CONDITIONS ARE NOT AVAILABLE.

MNZ060>063-068>070-182300-
   Twin Cities Metro

CITY           SKY/WX    TMP DP  RH WIND       PRES   REMARKS
TWIN CITIES    CLOUDY    50  28  42 E18       30.27F
ST PAUL        PTSUNNY   51  27  39 SE13      30.28F
CRYSTAL        CLOUDY    49  26  41 SE13G18   30.25F
EDEN PRAIRIE   CLOUDY    52  29  41 SE17      30.23F
LAKEVILLE      CLOUDY    48  32  53 SE13G22   30.25F
SOUTH ST PAUL  CLOUDY    53  25  33 SE8       30.27F
LAKE ELMO      FAIR      52  30  43 SE10      30.29F
$$
MNZ001>005-007-008-013>017-022>024-027-028-182300-
   Northwest Minnesota

CITY           SKY/WX    TMP DP  RH WIND       PRES   REMARKS
BEMIDJI        MOSUNNY   47  21  35 SE22      30.18F
HALLOCK          N/A     48  25  40 E17G24    30.09F
ROSEAU         SUNNY     52  14  22 SE16G22   30.16F
WARROAD        SUNNY     46  25  42 E12       30.20F
THIEF RVR FALL PTSUNNY   52  23  32 E23G29    30.12F
CROOKSTON      CLOUDY    52  28  40 SE22G30   30.10F
FOSSTON        MOSUNNY   48  25  40 SE15G24   30.13F
DETROIT LAKES  PTSUNNY   46  28  49 SE22G29   30.13F
MOORHEAD       MOSUNNY   52  25  35 SE25G31   30.10F
PARK RAPIDS    PTSUNNY   47  24  40 SE20      30.17F
$$
MNZ006-009>011-018-025>026-182300-
   North Central Minnesota

CITY           SKY/WX    TMP DP  RH WIND       PRES   REMARKS
BAUDETTE       SUNNY     48  14  25 E17       30.22F
FLAG ISLAND    SUNNY     43  14  31 E12G20    30.24F
INTL FALLS     SUNNY     45  13  27 SE7       30.27F
WASKISH        MOSUNNY   52  19  28 SE15      30.21F
BIG FORK       SUNNY     48  16  27 SE13      30.26S
LONGVILLE      MOSUNNY   48  21  34 SE8G17    30.22F
GRAND RAPIDS   MOSUNNY   46  18  31 S15G23    30.27S
CRANE LAKE     SUNNY     48  12  23 S3        30.32F
ORR            SUNNY     46   7  19 SE6       30.27F
COOK           SUNNY     45   9  23 SE8       30.29F
$$
MNZ012-019>021-037-182300-
   Northeast Minnesota

CITY           SKY/WX    TMP DP  RH WIND       PRES   REMARKS
DULUTH         SUNNY     37  19  48 E13       30.33F
ELY            SUNNY     45  18  33 E9        30.31F
HIBBING        SUNNY     49  11  21 SE15      30.28F
EVELETH        SUNNY     46  16  29 SE10      30.30F
DULUTH HARBOR  SUNNY     34  28  80 NE3       30.38F
TWO HARBORS    SUNNY     37  21  52 E10       30.35F
SILVER BAY     SUNNY     36  25  64 E10       30.36F
GRAND MARAIS     N/A     36  26  67 CALM      30.42S
G MARAIS ARPRT SUNNY     34  18  51 S7        30.37R WCI  28
$$
MNZ029>031-032-039>041-046>048-054>057-064-182300-
   West Central Minnesota

CITY           SKY/WX    TMP DP  RH WIND       PRES   REMARKS
FERGUS FALLS   PTSUNNY   46  21  36 SE20G30   30.10S
WHEATON        MOSUNNY   52  39  62 SE32G41   30.09F
MORRIS         MOSUNNY   50  36  57 SE31G37   30.11S
ALEXANDRIA     CLOUDY    45  28  51 SE20G33   30.16F
ELBOW LAKE     FAIR      45  30  54 SE25G35   30.13S
WADENA         CLOUDY    43  27  52 SE23      30.17F
GLENWOOD       PTSUNNY   45  32  61 E30       30.17S
APPLETON       MOSUNNY   54  36  50 SE25G33   30.10F
BENSON         MOSUNNY   52  36  54 S25G38    30.13F
ORTONVILLE     MOSUNNY   48  36  61 SE24G30   30.06F
MADISON        MOSUNNY   57  43  58 SE26G32   30.07F
WILLMAR        FAIR      48  36  61 E23G30    30.17F
$$
MNZ033>034-036-042>043-049>051-058-059-182300-
   Central Minnesota

CITY           SKY/WX    TMP DP  RH WIND       PRES   REMARKS
ST CLOUD       CLOUDY    45  27  49 E10       30.23F
SAUK CENTRE    FAIR      43  29  56 E16G24    30.19F
PAYNESVILLE    PTSUNNY   46  29  51 E17G24    30.19F
AITKIN         MOSUNNY   46  19  34 SE12G17   30.25F
PINE RIVER     MOSUNNY   43  25  49 SE16      30.26F
BRAINERD       PTSUNNY   47  23  38 E13G20    30.25F
STAPLES        CLOUDY    43  23  45 SE12G20   30.20F
LONG PRAIRIE   FAIR      41  27  56 E15G21    30.20F
LITTLE FALLS   CLOUDY    41  27  56 E13G20    30.24F
LITCHFIELD     PTSUNNY   46  32  57 E16       30.20F
BUFFALO        CLOUDY    47  31  52 E9        30.25F
MAPLE LAKE     CLOUDY    46  31  55 E9        30.24F
$$
MNZ037-044-045-052-053-182300-
   East Central Minnesota

CITY           SKY/WX    TMP DP  RH WIND       PRES   REMARKS
PRINCETON      CLOUDY    45  28  53 E13       30.27F
MORA           CLOUDY    43  23  45 SE6       30.31F
CAMBRIDGE      PTSUNNY   46  28  49 E8        30.27F
RUSH CITY      PTSUNNY   45  21  39 E7        30.30F
MOOSE LAKE     MOSUNNY   46  19  34 S7        30.29F
HINCKLEY       CLOUDY    45  23  42 E10G16    30.31S
CLOQUET        SUNNY     39  16  38 E12       30.32F
MCGREGOR       MOSUNNY   45  21  39 SE13      30.28F
$$
MNZ071>073-080-081-089-090-097-098-182300-
   Southwest Minnesota

CITY           SKY/WX    TMP DP  RH WIND       PRES   REMARKS
MONTEVIDEO     MOSUNNY   52  39  62 SE24      30.11F
GRANITE FALLS  SUNNY     52  38  58 E18G31    30.12F
CANBY          SUNNY     59  40  48 SE23G33   30.05F
MARSHALL       SUNNY     61  37  41 SE23G37   30.06F
REDWOOD FALLS  SUNNY     56  38  50 SE24G31   30.14F
OLIVIA         SUNNY     50  36  57 SE18      30.15F
PIPESTONE      SUNNY     64  32  29 S28G36    30.03F
WINDOM         SUNNY     61  30  31 SE24G31   30.12F
WORTHINGTON    SUNNY     63  30  29 SE22G36   30.11F
JACKSON        SUNNY     61  30  31 SE22G30   30.14F
TRACY          SUNNY     61  36  40 SE24G33   30.09F
SLAYTON        SUNNY     60  35  38 SE26G33   30.08F
$$
MNZ065>067-074>077-082>085-091>093-182300-
   South Central Minnesota

CITY           SKY/WX    TMP DP  RH WIND       PRES   REMARKS
MANKATO        MOSUNNY   55  32  41 SE18G24   30.22F
NEW ULM        SUNNY     55  36  47 SE20G30   30.18F
ST JAMES       SUNNY     59  36  41 SE22G28   30.18F
FAIRMONT       SUNNY     57  32  38 SE20G29   30.18F
GLENCOE        PTSUNNY   53  32  44 E23       30.21F
FARIBAULT      PTSUNNY   54  27  35 E13       30.25F
OWATONNA       MOSUNNY   54  34  47 E15G21    30.25F
WASECA         MOSUNNY   54  36  50 SE17G23   30.25F
ALBERT LEA     SUNNY     55  30  38 SE14G20   30.23F
$$
MNZ078>079-086>088-094>096-182300-
   Southeast Minnesota

CITY           SKY/WX    TMP DP  RH WIND       PRES   REMARKS
ROCHESTER      MOSUNNY   53  29  39 E13       30.27F
RED WING       MOSUNNY   54  25  32 SE7       30.28F
STANTON        CLOUDY    52  29  42 E10       30.26F
DODGE CENTER   PTSUNNY   55  28  35 SE15      30.25F
WINONA         SUNNY     54  23  30 SE8       30.31F
AUSTIN         SUNNY     55  32  41 E13G18    30.25F
PRESTON        MOSUNNY   55  29  37 E8        30.28F
$$
ABBREVIATIONS USED IN REMARKS
   TC - TEMPERATURES IN CELSIUS
  WCI - WIND CHILL INDEX
   HX - HEAT INDEX
  VSB - VISIBILITY
$$



USA.gov is the U.S. government's official web portal to all federal, state and local government web resources and services.